Rifle, CO

6:22 AM MST on November 18, 2017 (GMT -0700)
Garfield County Regional

Weather History for KRIL - October, 2012

Change the Weather History Date:

Friday, October 19, 2012

  Actual Average Record
Temperature  
Mean Temperature 49 °F 48 °F  
Max Temperature 69 °F 63 °F 81 °F (1940)
Min Temperature 29 °F 33 °F 13 °F (1976)
Degree Days  
Heating Degree Days 16 17  
Month to date heating degree days 245 258  
Since 1 July heating degree days 330 404  
Cooling Degree Days 0 0  
Month to date cooling degree days 0 0  
Year to date cooling degree days 809 541  
Moisture  
Dew Point 22 °F    
Average Humidity 45    
Maximum Humidity 75    
Minimum Humidity 15    
Precipitation  
Precipitation 0.00 in 0.06 in 1.29 in (1990)
Month to date precipitation 0.61 1.14  
Year to date precipitation 6.76 11.61  
Sea Level Pressure  
Sea Level Pressure 30.09 in    
Wind  
Wind Speed 5 mph (SSW)    
Max Wind Speed 21 mph    
Max Gust Speed 26 mph    
Visibility 10 miles    
Events      
T = Trace of Precipitation, MM = Missing Value Source: NWS Daily Summary

Daily Weather History Graph

Daily Weather History Graph

Search for Another Location

Airport or City:

Trip Planner

Search our weather history database for the weather conditions in past years. The results will help you decide how hot, cold, wet, or windy it might be!

Date:

Astronomy

Oct. 19, 2012 Rise Set
Actual Time 7:25 AM MDT 6:25 PM MDT
Civil Twilight 6:58 AM MDT 6:52 PM MDT
Nautical Twilight 6:27 AM MDT 7:23 PM MDT
Astronomical Twilight 5:55 AM MDT 7:54 PM MDT
Moon 12:10 PM MDT (10/19) 10:07 PM MDT (10/19)
Length of Visible Light 11h 54m
Length of Day
10h 59m
Waxing Crescent, 24% of the Moon is Illuminated
Oct 19
Waxing Crescent
Oct 21
First Quarter
Oct 29
Full
Nov 6
Last Quarter
Nov 13
New

Hourly Weather History & Observations

Time (MDT) Temp. Windchill Dew Point Humidity Pressure Visibility Wind Dir Wind Speed Gust Speed Precip Events Conditions
12:53 AM 36.0 °F - 21.9 °F 57% 30.19 in 10.0 mi Calm Calm - N/A   Clear
1:53 AM 36.0 °F - 21.0 °F 55% 30.18 in 10.0 mi Calm Calm - N/A   Clear
2:53 AM 34.0 °F 31.0 °F 21.9 °F 61% 30.18 in 10.0 mi East 3.5 mph - N/A   Clear
3:53 AM 33.1 °F - 21.0 °F 61% 30.18 in 10.0 mi Calm Calm - N/A   Clear
4:53 AM 30.9 °F - 21.0 °F 67% 30.19 in 10.0 mi Calm Calm - N/A   Clear
5:53 AM 28.9 °F 25.2 °F 21.0 °F 72% 30.21 in 10.0 mi ESE 3.5 mph - N/A   Clear
6:53 AM 28.9 °F 25.2 °F 19.9 °F 69% 30.23 in 10.0 mi SW 3.5 mph - N/A   Clear
7:53 AM 30.0 °F 25.2 °F 21.9 °F 72% 30.24 in 10.0 mi East 4.6 mph - N/A   Clear
8:53 AM 36.0 °F 33.3 °F 23.0 °F 59% 30.23 in 10.0 mi SSE 3.5 mph - N/A   Clear
9:53 AM 41.0 °F - 23.0 °F 49% 30.22 in 10.0 mi Calm Calm - N/A   Clear
10:53 AM 48.9 °F - 24.1 °F 38% 30.17 in 10.0 mi Variable 3.5 mph - N/A   Clear
11:53 AM 54.0 °F - 23.0 °F 30% 30.12 in 10.0 mi Calm Calm - N/A   Clear
12:53 PM 57.9 °F - 23.0 °F 26% 30.09 in 10.0 mi Calm Calm - N/A   Clear
1:53 PM 63.0 °F - 21.0 °F 20% 30.00 in 10.0 mi NW 9.2 mph - N/A   Clear
2:53 PM 68.0 °F - 19.9 °F 16% 29.97 in 10.0 mi West 16.1 mph 25.3 mph N/A   Clear
3:53 PM 66.9 °F - 19.9 °F 17% 29.96 in 10.0 mi West 16.1 mph - N/A   Clear
4:53 PM 68.0 °F - 19.9 °F 16% 29.95 in 10.0 mi West 17.3 mph - N/A   Clear
5:53 PM 64.9 °F - 21.0 °F 19% 29.96 in 10.0 mi West 9.2 mph - N/A   Clear
6:53 PM 61.0 °F - 21.0 °F 21% 29.98 in 10.0 mi West 9.2 mph - N/A   Clear
7:53 PM 57.9 °F - 21.9 °F 25% 30.00 in 10.0 mi SSE 4.6 mph - N/A   Clear
8:53 PM 59.0 °F - 21.0 °F 23% 29.98 in 10.0 mi South 5.8 mph - N/A   Clear
9:53 PM 51.1 °F - 23.0 °F 33% 29.99 in 10.0 mi ENE 4.6 mph - N/A   Clear
10:53 PM 45.0 °F - 25.0 °F 46% 29.99 in 10.0 mi Calm Calm - N/A   Clear
11:53 PM 44.1 °F - 25.0 °F 47% 29.98 in 10.0 mi Calm Calm - N/A   Clear